Hourly Weather Rudnya Bronskaya

Today, 16 April, Friday

Time Temperature Precipitation Wind Pressure Humidity
00:00 +7°C° 0 mm 2 mps 746 mmHg 94%
01:00 +6°C° 0 mm 2 mps 746 mmHg 94%
02:00 +6°C° 0 mm 2 mps 746 mmHg 94%
03:00 +6°C° 0.1 mm 2 mps 746 mmHg 94%
04:00 +6°C° 0.1 mm 2 mps 745 mmHg 95%
05:00 +6°C° 0.1 mm 2 mps 745 mmHg 95%
06:00 +7°C° 0 mm 2 mps 745 mmHg 91%
07:00 +8°C° 0 mm 3 mps 746 mmHg 86%
08:00 +10°C° 0 mm 3 mps 745 mmHg 81%
09:00 +11°C° 0.3 mm 4 mps 746 mmHg 76%
10:00 +12°C° 0.3 mm 5 mps 746 mmHg 72%
11:00 +13°C° 0.3 mm 5 mps 746 mmHg 67%
12:00 +11°C° 0.4 mm 6 mps 746 mmHg 67%
13:00 +11°C° 0.4 mm 6 mps 746 mmHg 66%
14:00 +11°C° 0.4 mm 6 mps 746 mmHg 66%
15:00 +11°C° 0.2 mm 6 mps 747 mmHg 68%
16:00 +10°C° 0.2 mm 5 mps 747 mmHg 70%
17:00 +11°C° 0.2 mm 4 mps 747 mmHg 73%
18:00 +10°C° 0 mm 3 mps 747 mmHg 77%
19:00 +9°C° 0 mm 3 mps 747 mmHg 82%
20:00 +8°C° 0 mm 2 mps 748 mmHg 86%
21:00 +7°C° 0 mm 2 mps 748 mmHg 88%
22:00 +7°C° 0 mm 2 mps 748 mmHg 89%
23:00 +7°C° 0 mm 2 mps 748 mmHg 91%

Tomorrow, 17 April, Saturday

Time Temperature Precipitation Wind Pressure Humidity
00:00 +6°C° 0 mm 2 mps 748 mmHg 91%
01:00 +6°C° 0 mm 2 mps 748 mmHg 92%
02:00 +6°C° 0 mm 2 mps 748 mmHg 92%
03:00 +6°C° 0 mm 2 mps 749 mmHg 93%
04:00 +5°C° 0 mm 2 mps 749 mmHg 93%
05:00 +5°C° 0 mm 2 mps 749 mmHg 94%
06:00 +6°C° 0 mm 2 mps 749 mmHg 92%
07:00 +7°C° 0 mm 2 mps 750 mmHg 90%
08:00 +8°C° 0 mm 1 mps 750 mmHg 88%
09:00 +9°C° 0.1 mm 2 mps 750 mmHg 80%
10:00 +10°C° 0.1 mm 2 mps 751 mmHg 72%
11:00 +13°C° 0.1 mm 2 mps 751 mmHg 65%
12:00 +13°C° 0.1 mm 2 mps 751 mmHg 61%
13:00 +14°C° 0.1 mm 2 mps 751 mmHg 57%
14:00 +14°C° 0.1 mm 2 mps 750 mmHg 54%
15:00 +14°C° 0.1 mm 2 mps 750 mmHg 56%
16:00 +14°C° 0.1 mm 1 mps 750 mmHg 59%
17:00 +14°C° 0.1 mm 1 mps 750 mmHg 62%
18:00 +12°C° 0.8 mm 2 mps 750 mmHg 71%
19:00 +10°C° 0.8 mm 2 mps 750 mmHg 81%
20:00 +9°C° 0.8 mm 2 mps 749 mmHg 91%
21:00 +9°C° 0.2 mm 3 mps 749 mmHg 91%
22:00 +9°C° 0.2 mm 3 mps 749 mmHg 91%
23:00 +8°C° 0.2 mm 4 mps 748 mmHg 92%

Day after tomorrow, 18 April, Sunday

Time Temperature Precipitation Wind Pressure Humidity
00:00 +8°C° 0.3 mm 4 mps 748 mmHg 91%
01:00 +8°C° 0.3 mm 4 mps 748 mmHg 91%
02:00 +7°C° 0.3 mm 4 mps 748 mmHg 91%
03:00 +6°C° 0.1 mm 5 mps 748 mmHg 90%
04:00 +4°C° 0.1 mm 6 mps 748 mmHg 90%
05:00 +3°C° 0.1 mm 6 mps 749 mmHg 89%
06:00 +4°C° 0 mm 6 mps 749 mmHg 85%
07:00 +4°C° 0 mm 7 mps 749 mmHg 81%
08:00 +5°C° 0 mm 7 mps 749 mmHg 76%
09:00 +6°C° 0 mm 7 mps 750 mmHg 70%
10:00 +8°C° 0 mm 7 mps 750 mmHg 64%
11:00 +10°C° 0 mm 7 mps 750 mmHg 59%
12:00 +10°C° 0.1 mm 6 mps 750 mmHg 58%
13:00 +10°C° 0.1 mm 6 mps 750 mmHg 58%
14:00 +10°C° 0.1 mm 6 mps 750 mmHg 58%
15:00 +10°C° 0.1 mm 6 mps 750 mmHg 61%
16:00 +9°C° 0.1 mm 5 mps 750 mmHg 64%
17:00 +9°C° 0.1 mm 5 mps 750 mmHg 68%
18:00 +8°C° 0 mm 4 mps 750 mmHg 73%
19:00 +8°C° 0 mm 3 mps 750 mmHg 78%
20:00 +5°C° 0 mm 3 mps 750 mmHg 83%
21:00 +5°C° 0 mm 3 mps 750 mmHg 84%
22:00 +5°C° 0 mm 3 mps 750 mmHg 85%
23:00 +5°C° 0 mm 4 mps 750 mmHg 87%

19 April, Monday

Time Temperature Precipitation Wind Pressure Humidity
00:00 +4°C° 0 mm 4 mps 750 mmHg 88%
01:00 +4°C° 0 mm 4 mps 750 mmHg 90%
02:00 +4°C° 0 mm 4 mps 750 mmHg 92%
03:00 +3°C° 0.1 mm 5 mps 749 mmHg 90%
04:00 +5°C° 0.1 mm 5 mps 749 mmHg 89%
05:00 +5°C° 0.1 mm 5 mps 749 mmHg 87%
06:00 +5°C° 0.2 mm 5 mps 748 mmHg 88%
07:00 +5°C° 0.2 mm 5 mps 748 mmHg 89%
08:00 +5°C° 0.2 mm 5 mps 748 mmHg 90%
09:00 +5°C° 0.2 mm 5 mps 748 mmHg 88%
10:00 +5°C° 0.2 mm 4 mps 748 mmHg 87%
11:00 +6°C° 0.2 mm 4 mps 748 mmHg 85%
12:00 +5°C° 0.2 mm 3 mps 748 mmHg 86%
13:00 +5°C° 0.2 mm 3 mps 748 mmHg 86%
14:00 +5°C° 0.2 mm 3 mps 747 mmHg 86%
15:00 +7°C° 0.1 mm 3 mps 747 mmHg 86%
16:00 +7°C° 0.1 mm 2 mps 747 mmHg 87%
17:00 +7°C° 0.1 mm 2 mps 747 mmHg 87%
18:00 +6°C° 0.1 mm 2 mps 747 mmHg 89%
19:00 +6°C° 0.1 mm 2 mps 747 mmHg 90%
20:00 +6°C° 0.1 mm 2 mps 747 mmHg 92%
21:00 +5°C° 0 mm 2 mps 746 mmHg 92%
22:00 +6°C° 0 mm 1 mps 746 mmHg 92%
23:00 +5°C° 0 mm 1 mps 746 mmHg 93%

20 April, Tuesday

Time Temperature Precipitation Wind Pressure Humidity
00:00 +5°C° 0 mm 1 mps 745 mmHg 93%
01:00 +4°C° 0 mm 2 mps 745 mmHg 94%
02:00 +4°C° 0 mm 2 mps 744 mmHg 94%
03:00 +5°C° 0.1 mm 2 mps 744 mmHg 95%
04:00 +4°C° 0.1 mm 3 mps 743 mmHg 96%
05:00 +5°C° 0.1 mm 3 mps 742 mmHg 97%
06:00 +5°C° 0.1 mm 4 mps 742 mmHg 95%
07:00 +6°C° 0.1 mm 4 mps 741 mmHg 94%
08:00 +6°C° 0.1 mm 4 mps 740 mmHg 93%
09:00 +6°C° 0.2 mm 5 mps 739 mmHg 93%
10:00 +6°C° 0.2 mm 5 mps 739 mmHg 93%
11:00 +6°C° 0.2 mm 5 mps 738 mmHg 94%
12:00 +6°C° 0.5 mm 5 mps 737 mmHg 93%
13:00 +6°C° 0.5 mm 5 mps 736 mmHg 93%
14:00 +5°C° 0.5 mm 5 mps 735 mmHg 93%
15:00 +5°C° 0.8 mm 5 mps 735 mmHg 93%
16:00 +3°C° 0.8 mm 6 mps 734 mmHg 94%
17:00 +3°C° 0.8 mm 6 mps 734 mmHg 94%
18:00 +2°C° 0.7 mm 6 mps 734 mmHg 95%
19:00 +2°C° 0.7 mm 6 mps 734 mmHg 95%
20:00 +1°C° 0.7 mm 6 mps 734 mmHg 96%
21:00 +1°C° 0.6 mm 6 mps 734 mmHg 96%
22:00 +1°C° 0.6 mm 6 mps 734 mmHg 96%
23:00 -1°C° 0.6 mm 6 mps 734 mmHg 96%

21 April, Wednesday

Time Temperature Precipitation Wind Pressure Humidity
00:00 +1°C° 0.6 mm 6 mps 734 mmHg 96%
01:00 +1°C° 0.6 mm 6 mps 734 mmHg 96%
02:00 +1°C° 0.6 mm 6 mps 734 mmHg 96%
03:00 +2°C° 0.4 mm 6 mps 735 mmHg 96%
04:00 +2°C° 0.4 mm 6 mps 735 mmHg 96%
05:00 +2°C° 0.4 mm 6 mps 735 mmHg 96%
06:00 +2°C° 0.6 mm 6 mps 735 mmHg 96%
07:00 +2°C° 0.6 mm 6 mps 736 mmHg 96%
08:00 +2°C° 0.6 mm 6 mps 736 mmHg 96%
09:00 +2°C° 0.7 mm 6 mps 737 mmHg 96%
10:00 +2°C° 0.7 mm 7 mps 738 mmHg 96%
11:00 +3°C° 0.7 mm 7 mps 738 mmHg 96%
12:00 +3°C° 0.4 mm 7 mps 739 mmHg 96%
13:00 +3°C° 0.4 mm 7 mps 740 mmHg 96%
14:00 +3°C° 0.4 mm 7 mps 741 mmHg 96%
15:00 +4°C° 0.2 mm 7 mps 741 mmHg 92%
16:00 +4°C° 0.2 mm 7 mps 742 mmHg 88%
17:00 +5°C° 0.2 mm 7 mps 743 mmHg 85%
18:00 +5°C° 0 mm 6 mps 744 mmHg 84%
19:00 +6°C° 0 mm 5 mps 744 mmHg 83%
20:00 +5°C° 0 mm 5 mps 745 mmHg 83%
21:00 +5°C° 0 mm 5 mps 745 mmHg 85%
22:00 +4°C° 0 mm 4 mps 746 mmHg 88%
23:00 +3°C° 0 mm 4 mps 747 mmHg 90%
Show more